Seretse Khama, Botswana

4:56 AM CAT on May 22, 2018 (GMT +0200)
Seretse Khama

Weather History for FBSK - July, 2013

Change the Weather History Date:

Wednesday, July 17, 2013

  Actual Average Record
Temperature  
Mean Temperature 57 °F -  
Max Temperature 75 °F 73 °F 80 °F (1999)
Min Temperature 39 °F 42 °F 24 °F (2000)
Degree Days  
Heating Degree Days 8    
Growing Degree Days 7 (Base 50)    
Moisture  
Dew Point 32 °F    
Average Humidity 44    
Maximum Humidity 87    
Minimum Humidity 16    
Precipitation  
Precipitation 0.00 in - - ()
Sea Level Pressure  
Sea Level Pressure 30.25 in    
Wind  
Wind Speed 4 mph ()    
Max Wind Speed 10 mph    
Max Gust Speed -    
Averages and records for this station are not official NWS values.
T = Trace of Precipitation, MM = Missing Value Source: Averaged Metar Reports

Daily Weather History Graph

Daily Weather History Graph

Search for Another Location

Airport or City:

Astronomy

Jul. 17, 2013 Rise Set
Actual Time 6:59 AM CAT 5:45 PM CAT
Civil Twilight 6:34 AM CAT 6:10 PM CAT
Nautical Twilight 6:06 AM CAT 6:38 PM CAT
Astronomical Twilight 5:39 AM CAT 7:05 PM CAT
Moon 12:43 PM CAT (7/17) 1:12 AM CAT (7/17)
Length of Visible Light 11h 35m
Length of Day
10h 46m
Waxing Gibbous, 64% of the Moon is Illuminated
Jul 17
Waxing Gibbous
Jul 22
Full
Jul 29
Last Quarter
Aug 6
New
Aug 14
First Quarter

Hourly Weather History & Observations

Time (CAT) Temp. Windchill Dew Point Humidity Pressure Visibility Wind Dir Wind Speed Gust Speed Precip Events Conditions
12:00 AM 50.0 °F - 35.6 °F 58% 30.24 in - West 3.5 mph - N/A   Clear
1:00 AM 46.4 °F 43.5 °F 35.6 °F 66% 30.24 in - WSW 5.8 mph - N/A   Clear
2:00 AM 48.2 °F - 35.6 °F 62% 30.24 in - SSE 4.6 mph - N/A   Clear
3:00 AM 42.8 °F 40.1 °F 35.6 °F 76% 30.24 in - WNW 4.6 mph - N/A   Clear
4:00 AM 42.8 °F 40.1 °F 35.6 °F 76% 30.24 in - NW 4.6 mph - N/A   Clear
5:00 AM 42.8 °F 41.1 °F 35.6 °F 76% 30.24 in - SSW 3.5 mph - N/A   Clear
6:00 AM 41.0 °F 39.0 °F 35.6 °F 81% 30.24 in - West 3.5 mph - N/A   Clear
7:00 AM 39.2 °F - 35.6 °F 87% 30.27 in - Variable 1.2 mph - N/A   Clear
8:00 AM 46.4 °F - 37.4 °F 71% 30.30 in - Variable 1.2 mph - N/A   Clear
9:00 AM 55.4 °F - 39.2 °F 54% 30.30 in - Variable 1.2 mph - N/A   Clear
10:00 AM 60.8 °F - 37.4 °F 42% 30.33 in - Variable 2.3 mph - N/A   Clear
11:00 AM 66.2 °F - 32.0 °F 28% 30.30 in - Variable 2.3 mph - N/A   Clear
12:00 PM 71.6 °F - 32.0 °F 23% 30.30 in - NNE 4.6 mph - N/A   Clear
1:00 PM 73.4 °F - 28.4 °F 19% 30.27 in - NNE 8.1 mph - N/A   Clear
2:00 PM 73.4 °F - 28.4 °F 19% 30.24 in - NNE 10.4 mph - N/A   Clear
3:00 PM 75.2 °F - 26.6 °F 17% 30.21 in - ENE 10.4 mph - N/A   Clear
4:00 PM 73.4 °F - 24.8 °F 16% 30.21 in - ENE 9.2 mph - N/A   Clear
5:00 PM 73.4 °F - 24.8 °F 16% 30.21 in - NE 6.9 mph - N/A   Clear
6:00 PM 68.0 °F - 24.8 °F 20% 30.21 in - NE 3.5 mph - N/A   Clear
7:00 PM 62.6 °F - 30.2 °F 30% 30.24 in - ENE 2.3 mph - N/A   Clear
8:00 PM 59.0 °F - 28.4 °F 31% 30.24 in - ESE 4.6 mph - N/A   Clear
9:00 PM 59.0 °F - 28.4 °F 31% 30.27 in - NE 4.6 mph - N/A   Clear
10:00 PM 57.2 °F - 28.4 °F 33% 30.27 in - NNE 5.8 mph - N/A   Clear
11:00 PM 55.4 °F - 28.4 °F 36% 30.27 in - NNE 5.8 mph - N/A   Clear